Time,TemperatureF,DewpointF,PressureIn,WindDirection,WindDirectionDegrees,WindSpeedMPH,WindSpeedGustMPH,Humidity,HourlyPrecipIn,Conditions,Clouds,dailyrainin,SoftwareType,DateUTC
2013-10-10 00:11:00,47.0,41.0,29.60,North,0,0.0,0.0,81,0.00,,,0.00,,2013-10-10 07:11:00,
2013-10-10 00:21:00,48.0,43.0,29.59,ENE,63,6.0,7.0,83,0.00,,,0.00,,2013-10-10 07:21:00,
2013-10-10 00:32:00,48.0,43.0,29.59,ENE,63,6.0,7.0,83,0.00,,,0.00,,2013-10-10 07:32:00,
2013-10-10 00:42:00,48.0,43.0,29.59,ENE,63,6.0,7.0,83,0.00,,,0.00,,2013-10-10 07:42:00,
2013-10-10 00:52:00,48.0,43.0,29.59,ENE,63,6.0,7.0,83,0.00,,,0.00,,2013-10-10 07:52:00,
2013-10-10 01:11:00,47.0,42.0,29.60,East,90,6.0,7.0,83,0.00,,,0.00,,2013-10-10 08:11:00,
2013-10-10 01:22:00,47.0,42.0,29.61,North,0,0.0,5.0,82,0.00,,,0.00,,2013-10-10 08:22:00,
2013-10-10 01:32:00,47.0,42.0,29.61,North,0,0.0,5.0,82,0.00,,,0.00,,2013-10-10 08:32:00,
2013-10-10 01:42:00,47.0,42.0,29.61,North,0,0.0,5.0,82,0.00,,,0.00,,2013-10-10 08:42:00,
2013-10-10 01:52:00,47.0,42.0,29.61,North,0,0.0,5.0,82,0.00,,,0.00,,2013-10-10 08:52:00,
2013-10-10 02:11:00,47.0,42.0,29.62,North,0,0.0,5.0,84,0.00,,,0.00,,2013-10-10 09:11:00,
2013-10-10 02:21:00,47.0,42.0,29.62,North,0,0.0,5.0,84,0.00,,,0.00,,2013-10-10 09:21:00,
2013-10-10 02:33:00,47.0,42.0,29.62,North,0,0.0,5.0,84,0.00,,,0.00,,2013-10-10 09:33:00,
2013-10-10 02:42:00,47.0,42.0,29.62,North,0,0.0,5.0,84,0.00,,,0.00,,2013-10-10 09:42:00,
2013-10-10 03:23:00,48.0,40.0,29.63,North,0,0.0,0.0,74,0.00,,,0.00,,2013-10-10 10:23:00,
2013-10-10 03:32:00,48.0,40.0,29.63,North,0,0.0,0.0,74,0.00,,,0.00,,2013-10-10 10:32:00,
2013-10-10 03:42:00,48.0,40.0,29.63,North,0,0.0,0.0,74,0.00,,,0.00,,2013-10-10 10:42:00,
2013-10-10 03:53:00,48.0,40.0,29.64,North,0,0.0,0.0,75,0.00,,,0.00,,2013-10-10 10:53:00,
2013-10-10 04:02:00,48.0,40.0,29.64,North,0,0.0,0.0,75,0.00,,,0.00,,2013-10-10 11:02:00,
2013-10-10 04:12:00,48.0,40.0,29.64,North,0,0.0,0.0,75,0.00,,,0.00,,2013-10-10 11:12:00,
2013-10-10 04:21:00,48.0,40.0,29.64,North,0,0.0,0.0,75,0.00,,,0.00,,2013-10-10 11:21:00,
2013-10-10 05:11:00,49.0,39.0,29.65,North,0,0.0,2.0,67,0.00,,,0.00,,2013-10-10 12:11:00,
2013-10-10 05:21:00,49.0,38.0,29.66,North,0,0.0,0.0,66,0.00,,,0.00,,2013-10-10 12:21:00,
2013-10-10 05:32:00,49.0,38.0,29.66,North,0,0.0,0.0,66,0.00,,,0.00,,2013-10-10 12:32:00,
2013-10-10 05:41:00,49.0,38.0,29.66,North,0,0.0,0.0,66,0.00,,,0.00,,2013-10-10 12:41:00,
2013-10-10 05:52:00,48.0,38.0,29.67,East,93,4.0,5.0,69,0.00,,,0.00,,2013-10-10 12:52:00,
2013-10-10 06:11:00,48.0,38.0,29.67,East,93,4.0,5.0,69,0.00,,,0.00,,2013-10-10 13:11:00,
2013-10-10 06:21:00,48.0,38.0,29.67,East,93,4.0,5.0,69,0.00,,,0.00,,2013-10-10 13:21:00,
2013-10-10 07:22:00,46.0,41.0,29.71,ESE,119,11.0,12.0,83,0.00,,,0.00,,2013-10-10 14:22:00,
2013-10-10 07:32:00,46.0,41.0,29.71,ESE,119,11.0,12.0,83,0.00,,,0.00,,2013-10-10 14:32:00,
2013-10-10 07:42:00,46.0,41.0,29.71,ESE,119,11.0,12.0,83,0.00,,,0.00,,2013-10-10 14:42:00,
2013-10-10 07:52:00,46.0,41.0,29.71,ESE,119,11.0,12.0,83,0.00,,,0.00,,2013-10-10 14:52:00,
2013-10-10 08:11:00,47.0,42.0,29.73,ESE,121,7.0,9.0,84,0.00,,,0.00,,2013-10-10 15:11:00,
2013-10-10 08:22:00,47.0,43.0,29.75,ESE,118,6.0,10.0,86,0.00,,,0.00,,2013-10-10 15:22:00,
2013-10-10 08:33:00,47.0,43.0,29.75,ESE,118,6.0,10.0,86,0.00,,,0.00,,2013-10-10 15:33:00,
2013-10-10 08:43:00,47.0,43.0,29.75,ESE,118,6.0,10.0,86,0.00,,,0.00,,2013-10-10 15:43:00,
2013-10-10 08:54:00,47.0,43.0,29.75,ESE,118,6.0,10.0,86,0.00,,,0.00,,2013-10-10 15:54:00,
2013-10-10 09:13:00,48.0,43.0,29.77,SE,130,4.0,7.0,83,0.00,,,0.00,,2013-10-10 16:13:00,
2013-10-10 09:23:00,48.0,43.0,29.77,SE,130,4.0,7.0,83,0.00,,,0.00,,2013-10-10 16:23:00,
2013-10-10 09:33:00,48.0,43.0,29.77,SE,130,4.0,7.0,83,0.00,,,0.00,,2013-10-10 16:33:00,
2013-10-10 09:42:00,48.0,43.0,29.77,SE,130,4.0,7.0,83,0.00,,,0.00,,2013-10-10 16:42:00,
2013-10-10 10:23:00,52.0,46.0,29.79,South,178,5.0,11.0,80,0.00,,,0.00,,2013-10-10 17:23:00,
2013-10-10 10:33:00,52.0,46.0,29.79,South,178,5.0,11.0,80,0.00,,,0.00,,2013-10-10 17:33:00,
2013-10-10 10:42:00,52.0,46.0,29.79,South,178,5.0,11.0,80,0.00,,,0.00,,2013-10-10 17:42:00,
2013-10-10 10:52:00,52.0,46.0,29.79,South,178,5.0,11.0,80,0.00,,,0.00,,2013-10-10 17:52:00,
2013-10-10 11:12:00,52.0,45.0,29.80,North,0,0.0,8.0,77,0.00,,,0.00,,2013-10-10 18:12:00,
2013-10-10 11:21:00,52.0,45.0,29.80,North,0,0.0,8.0,77,0.00,,,0.00,,2013-10-10 18:21:00,
2013-10-10 11:32:00,52.0,45.0,29.80,North,0,0.0,8.0,77,0.00,,,0.00,,2013-10-10 18:32:00,
2013-10-10 11:41:00,52.0,45.0,29.80,North,0,0.0,8.0,77,0.00,,,0.00,,2013-10-10 18:41:00,
2013-10-10 11:52:00,54.0,45.0,29.81,North,0,0.0,8.0,72,0.00,,,0.00,,2013-10-10 18:52:00,
2013-10-10 12:11:00,54.0,45.0,29.80,South,173,2.0,9.0,72,0.00,,,0.00,,2013-10-10 19:11:00,
2013-10-10 12:21:00,54.0,45.0,29.80,South,173,2.0,9.0,72,0.00,,,0.00,,2013-10-10 19:21:00,
2013-10-10 12:32:00,54.0,45.0,29.80,South,173,2.0,9.0,72,0.00,,,0.00,,2013-10-10 19:32:00,
2013-10-10 12:42:00,54.0,45.0,29.80,South,173,2.0,9.0,72,0.00,,,0.00,,2013-10-10 19:42:00,
2013-10-10 14:12:00,55.0,47.0,29.79,SSE,160,6.0,14.0,75,0.00,,,0.00,,2013-10-10 21:12:00,
2013-10-10 14:21:00,55.0,47.0,29.79,SSE,160,6.0,14.0,75,0.00,,,0.00,,2013-10-10 21:21:00,
2013-10-10 14:34:00,55.0,47.0,29.79,SSE,160,6.0,14.0,75,0.00,,,0.00,,2013-10-10 21:34:00,
2013-10-10 14:43:00,55.0,47.0,29.79,SSE,160,6.0,14.0,75,0.00,,,0.00,,2013-10-10 21:43:00,
2013-10-10 15:53:00,54.0,48.0,29.80,South,184,7.0,15.0,80,0.00,,,0.00,,2013-10-10 22:53:00,
2013-10-10 16:03:00,54.0,48.0,29.80,South,184,7.0,15.0,80,0.00,,,0.00,,2013-10-10 23:03:00,
2013-10-10 16:12:00,54.0,48.0,29.80,South,184,7.0,15.0,80,0.00,,,0.00,,2013-10-10 23:12:00,
2013-10-10 16:23:00,54.0,48.0,29.80,South,184,7.0,15.0,80,0.00,,,0.00,,2013-10-10 23:23:00,
2013-10-10 20:04:00,52.0,48.0,29.80,North,0,0.0,4.0,87,0.00,,,0.00,,2013-10-11 03:04:00,
2013-10-10 20:23:00,52.0,48.0,29.80,North,0,0.0,4.0,87,0.00,,,0.00,,2013-10-11 03:23:00,
2013-10-10 20:34:00,52.0,48.0,29.80,North,0,0.0,4.0,87,0.00,,,0.00,,2013-10-11 03:34:00,
2013-10-10 20:45:00,52.0,48.0,29.80,North,0,0.0,4.0,87,0.00,,,0.00,,2013-10-11 03:45:00,
2013-10-10 20:54:00,52.0,48.0,29.80,North,0,0.0,4.0,87,0.00,,,0.00,,2013-10-11 03:54:00,
2013-10-10 21:24:00,51.0,48.0,29.82,North,0,0.0,0.0,88,0.00,,,0.00,,2013-10-11 04:24:00,
2013-10-10 21:34:00,51.0,48.0,29.82,North,0,0.0,0.0,88,0.00,,,0.00,,2013-10-11 04:34:00,
2013-10-10 21:44:00,51.0,48.0,29.82,North,0,0.0,0.0,88,0.00,,,0.00,,2013-10-11 04:44:00,
2013-10-10 21:53:00,51.0,48.0,29.83,North,0,0.0,0.0,89,0.00,,,0.00,,2013-10-11 04:53:00,
2013-10-10 22:03:00,51.0,48.0,29.83,North,0,0.0,0.0,89,0.00,,,0.00,,2013-10-11 05:03:00,
2013-10-10 22:13:00,51.0,48.0,29.83,North,0,0.0,0.0,89,0.00,,,0.00,,2013-10-11 05:13:00,
2013-10-10 22:23:00,51.0,48.0,29.83,North,0,0.0,0.0,89,0.00,,,0.00,,2013-10-11 05:23:00,
2013-10-10 22:52:00,51.0,48.0,29.83,North,0,0.0,0.0,89,0.00,,,0.00,,2013-10-11 05:52:00,
2013-10-10 23:12:00,52.0,48.0,29.83,North,0,0.0,0.0,87,0.00,,,0.00,,2013-10-11 06:12:00,
2013-10-10 23:22:00,52.0,48.0,29.83,North,0,0.0,0.0,86,0.00,,,0.00,,2013-10-11 06:22:00,
2013-10-10 23:32:00,52.0,48.0,29.83,North,0,0.0,0.0,86,0.00,,,0.00,,2013-10-11 06:32:00,
2013-10-10 23:42:00,52.0,48.0,29.83,North,0,0.0,0.0,86,0.00,,,0.00,,2013-10-11 06:42:00,
2013-10-10 23:52:00,52.0,48.0,29.83,North,0,0.0,0.0,86,0.00,,,0.00,,2013-10-11 06:52:00,